This demonstration page uses our WeatherBlox Daily Observations layout. Learn more.

Left ArrowRight Arrow

41.86663, -103.66717

Hourly Observations for June 12, 2022

Temp ( °F °C ) Dew Point ( °F °C ) Humidity (%) Winds ( mph kmh ) Pressure ( in mb ) Visibility ( mi km ) Precip ( " mm )
12:53 am 00:53 Clear 75 23.9 50 10 41 41 SE 5 7 29.60 1002 10 16 0.00 0.00
1:53 am 01:53 Clear 69 20.6 50 10 51 51 SSE 3 6 29.61 1003 10 16 0.00 0.00
2:53 am 02:53 Clear 67 19.4 56 13.3 68 68 N 20 31 29.62 1003 10 16 0.00 0.00
3:53 am 03:53 Clear 62 16.7 56 13.3 80 80 NW 16 26 29.67 1005 10 16 0.00 0.00
4:53 am 04:53 Clear 60 15.6 56 13.3 86 86 WNW 8 13 29.70 1006 10 16 0.00 0.00
5:53 am 05:53 Sunny 58 14.4 55 12.8 90 90 NW 3 6 29.73 1007 10 16 0.00 0.00
6:53 am 06:53 Sunny 62 16.7 56 13.3 80 80 NW 9 15 29.72 1007 10 16 0.00 0.00
7:53 am 07:53 Sunny 67 19.4 57 13.9 71 71 WNW 12 19 29.72 1007 10 16 0.00 0.00
8:53 am 08:53 Sunny 71 21.7 58 14.4 63 63 WNW 13 20 29.71 1006 10 16 0.00 0.00
9:53 am 09:53 Sunny 77 25 59 15 54 54 WNW 10 17 29.68 1005 10 16 0.00 0.00
10:53 am 10:53 Sunny 81 27.2 59 15 47 47 WNW 5 7 29.66 1004 10 16 0.00 0.00
11:53 am 11:53 Sunny 86 30 59 15 40 40 ESE 9 15 29.63 1004 10 16 0.00 0.00
12:53 pm 12:53 Sunny 88 31.1 61 16.1 40 40 SE 16 26 29.61 1003 10 16 0.00 0.00
1:53 pm 13:53 Sunny 90 32.2 59 15 35 35 SE 16 26 29.57 1002 10 16 0.00 0.00
2:53 pm 14:53 Sunny 93 33.9 57 13.9 30 30 ESE 18 30 29.54 1000 10 16 0.00 0.00
3:53 pm 15:53 Sunny 90 32.2 57 13.9 33 33 E 18 30 29.50 999 10 16 0.00 0.00
4:03 pm 16:03 Sunny with Nearby Thunderstorms 90 32.2 56 13.3 32 32 E 17 28 29.31 993 10 16 0.00 0.00
4:18 pm 16:18 Sunny 91 33 54 12 28 28 ESE 16 26 29.29 992 10 16 0.00 0.00
4:28 pm 16:28 Sunny with Nearby Thunderstorms 90 32.2 53 11.7 28 28 SE 16 26 29.28 992 10 16 0.00 0.00
4:53 pm 16:53 Sunny with Nearby Thunderstorms 90 32.2 54 12.2 29 29 ESE 12 19 29.52 1000 10 16 0.00 0.00
5:15 pm 17:15 Partly Cloudy with Thunderstorms 86 30 56 13.3 36 36 WNW 24 39 29.39 995 10 16 0.00 0.00
5:33 pm 17:33 Partly Cloudy with Thunderstorms 83 28.3 55 12.8 38 38 NNW 16 26 29.38 995 10 16 0.00 0.00
5:46 pm 17:46 Partly Cloudy with Nearby Thunderstorms 82 27.8 55 12.8 40 40 N 20 31 29.36 994 10 16 0.00 0.00
5:53 pm 17:53 Sunny with Nearby Thunderstorms 81 27.2 56 13.3 42 42 N 20 31 29.50 999 10 16 0.00 0.00
6:05 pm 18:05 Sunny 81 27.2 59 15 47 47 NNE 16 26 29.36 994 10 16 0.00 0.00
6:53 pm 18:53 Sunny 85 29.4 56 13.3 37 37 E 14 22 29.49 999 10 16 0.00 0.00
7:08 pm 19:08 Sunny with Nearby Thunderstorms 84 29 55 13 37 37 E 13 20 29.32 993 10 16 0.00 0.00
7:29 pm 19:29 Sunny 84 28.9 56 13.3 38 38 E 12 19 29.33 993 10 16 0.00 0.00
7:53 pm 19:53 Sunny 82 27.8 55 12.8 40 40 ESE 13 20 29.47 998 10 16 0.00 0.00
8:53 pm 20:53 Clear 78 25.6 53 11.7 42 42 E 14 22 29.47 998 10 16 0.00 0.00
9:53 pm 21:53 Clear 76 24.4 57 13.9 52 52 ESE 12 19 29.45 997 10 16 0.00 0.00
10:53 pm 22:53 Clear 76 24.4 58 14.4 54 54 ESE 13 20 29.44 997 10 16 0.00 0.00
11:53 pm 23:53 Clear 74 23.3 61 16.1 64 64 SE 13 20 29.43 997 10 16 0.00 0.00

Powered by AerisWeather